Location: Caltech
(34.1382°N, 118.1253°W)
Time: 09:31:49
(UTC-07:00)

TMSAT-1 - Visible Passes

Search period start: 30 May 2015 00:00
Search period end: 09 June 2015 00:00
Orbit: 809 x 813 km, 98.5° (Epoch: 30 May)

Date Brightness Start Highest point End Pass type
(mag) Time Alt. Az. Time Alt. Az. Time Alt. Az.
30 May 9.1 03:30:53 10° NNE 03:36:12 78° E 03:38:24 37° S visible
30 May 11.1 05:13:44 10° NW 05:15:34 11° WNW 05:17:03 10° W visible
31 May 9.9 03:07:36 10° NNE 03:12:40 45° E 03:14:39 32° SSE visible
31 May 10.7 04:48:31 10° NNW 04:52:19 19° WNW 04:55:49 10° WSW visible
01 Jun 10.7 02:44:41 10° NE 02:49:02 26° E 02:50:54 22° SE visible
01 Jun 10.0 04:24:17 10° N 04:28:59 32° WNW 04:32:03 18° WSW visible
02 Jun 11.3 02:22:24 10° ENE 02:25:17 15° E 02:27:08 13° ESE visible
02 Jun 9.3 04:00:25 10° N 04:05:36 54° WNW 04:08:18 27° SW visible
03 Jun 9.0 03:36:49 10° NNE 03:42:10 89° E 03:44:32 35° SSW visible
04 Jun 9.7 03:13:29 10° NNE 03:18:39 52° E 03:20:46 33° SSE visible
04 Jun 10.8 04:54:46 10° NNW 04:58:12 17° WNW 05:01:24 10° WSW visible
05 Jun 10.5 02:50:26 10° NE 02:55:02 30° E 02:57:00 24° SE visible
05 Jun 10.2 04:30:23 10° NNW 04:34:54 28° WNW 04:38:10 15° WSW visible
06 Jun 11.2 02:27:55 10° NE 02:31:19 18° E 02:33:14 15° ESE visible
06 Jun 9.5 04:06:27 10° N 04:11:32 47° WNW 04:14:24 24° SW visible
07 Jun 9.0 03:42:47 10° N 03:48:07 80° WNW 03:50:37 32° SSW visible
08 Jun 9.4 03:19:21 10° NNE 03:24:37 60° E 03:26:51 34° SSE visible
08 Jun 11.0 05:01:06 10° NNW 05:04:06 15° WNW 05:06:50 10° W visible
